TimeEST,TemperatureF,Dew PointF,Humidity,Sea Level PressureIn,VisibilityMPH,Wind Direction,Wind SpeedMPH,Gust SpeedMPH,PrecipitationIn,Events,Conditions,WindDirDegrees,DateUTC
8:35 AM,30.0,25.0,82,30.16,10.0,SE,4.6,-,N/A,,Clear,130,2012-12-06 13:35:00
8:55 AM,30.7,25.5,81,30.16,10.0,SE,5.8,-,N/A,,Clear,130,2012-12-06 13:55:00
9:15 AM,31.1,25.9,81,30.16,10.0,SE,8.1,-,N/A,,Clear,140,2012-12-06 14:15:00
9:35 AM,32.0,26.6,80,30.16,10.0,SE,8.1,-,N/A,,Clear,140,2012-12-06 14:35:00
9:55 AM,32.0,26.8,81,30.15,10.0,SE,8.1,-,N/A,,Clear,140,2012-12-06 14:55:00
10:15 AM,33.3,27.5,79,30.15,10.0,SSE,6.9,-,N/A,,Clear,150,2012-12-06 15:15:00
10:35 AM,34.9,28.4,77,30.14,10.0,SSE,8.1,-,N/A,,Clear,150,2012-12-06 15:35:00
10:55 AM,36.5,29.7,76,30.14,10.0,SSE,9.2,-,N/A,,Clear,160,2012-12-06 15:55:00
11:15 AM,38.5,30.9,74,30.14,10.0,SSE,5.8,-,N/A,,Clear,150,2012-12-06 16:15:00
11:35 AM,39.2,31.1,73,30.13,10.0,SSE,8.1,-,N/A,,Clear,150,2012-12-06 16:35:00
11:55 AM,39.4,31.3,73,30.11,10.0,SSE,6.9,-,N/A,,Clear,160,2012-12-06 16:55:00
12:15 PM,40.5,32.0,72,30.10,10.0,SSE,5.8,-,N/A,,Clear,150,2012-12-06 17:15:00
12:55 PM,42.1,32.4,68,30.07,10.0,SSE,8.1,-,N/A,,Clear,150,2012-12-06 17:55:00
1:15 PM,43.7,33.3,67,30.06,10.0,SSE,8.1,-,N/A,,Clear,160,2012-12-06 18:15:00
1:35 PM,44.6,33.3,64,30.04,10.0,SSE,4.6,-,N/A,,Clear,150,2012-12-06 18:35:00
1:55 PM,45.0,33.6,64,30.03,10.0,SSE,8.1,-,N/A,,Clear,160,2012-12-06 18:55:00
2:15 PM,45.5,33.4,63,30.02,10.0,SSE,8.1,-,N/A,,Clear,160,2012-12-06 19:15:00
2:35 PM,46.0,33.3,61,30.02,10.0,South,8.1,-,N/A,,Clear,170,2012-12-06 19:35:00
2:55 PM,46.4,33.1,60,30.02,10.0,SSE,9.2,-,N/A,,Clear,160,2012-12-06 19:55:00
3:15 PM,46.4,32.7,59,30.02,10.0,SSE,8.1,-,N/A,,Clear,160,2012-12-06 20:15:00
3:35 PM,46.0,32.7,60,30.01,10.0,SSE,6.9,-,N/A,,Clear,160,2012-12-06 20:35:00
3:55 PM,45.7,33.3,62,30.01,10.0,SSE,4.6,-,N/A,,Clear,160,2012-12-06 20:55:00
4:15 PM,45.5,34.0,64,30.01,10.0,SSE,3.5,-,N/A,,Scattered Clouds,160,2012-12-06 21:15:00
4:35 PM,45.5,33.8,64,30.02,10.0,South,4.6,-,N/A,,Mostly Cloudy,170,2012-12-06 21:35:00
4:55 PM,45.0,34.0,65,30.00,10.0,SSE,4.6,-,N/A,,Mostly Cloudy,150,2012-12-06 21:55:00
5:15 PM,44.2,34.7,69,30.00,10.0,SE,4.6,-,N/A,,Mostly Cloudy,140,2012-12-06 22:15:00
5:35 PM,44.6,34.5,68,29.99,10.0,Calm,Calm,-,N/A,,Overcast,0,2012-12-06 22:35:00
5:55 PM,43.9,34.9,71,30.00,10.0,SSE,3.5,-,N/A,,Overcast,160,2012-12-06 22:55:00
6:15 PM,43.9,35.6,73,29.99,10.0,SE,4.6,-,N/A,,Overcast,130,2012-12-06 23:15:00
6:35 PM,44.6,34.9,69,29.98,10.0,SE,4.6,-,N/A,,Overcast,140,2012-12-06 23:35:00
6:55 PM,44.2,35.1,70,29.98,10.0,SSE,4.6,-,N/A,,Mostly Cloudy,150,2012-12-06 23:55:00
7:15 PM,44.6,35.6,71,29.98,10.0,SSE,4.6,-,N/A,,Overcast,150,2012-12-07 00:15:00
7:35 PM,44.8,35.8,71,29.98,10.0,SSE,4.6,-,N/A,,Overcast,150,2012-12-07 00:35:00
7:55 PM,45.1,35.6,69,29.97,10.0,SE,5.8,-,N/A,,Overcast,140,2012-12-07 00:55:00
8:15 PM,45.0,36.1,71,29.98,10.0,South,4.6,-,N/A,,Overcast,170,2012-12-07 01:15:00
8:35 PM,45.5,36.1,70,29.97,10.0,Calm,Calm,-,N/A,,Overcast,0,2012-12-07 01:35:00
8:55 PM,45.1,36.5,72,29.97,10.0,South,3.5,-,N/A,,Overcast,180,2012-12-07 01:55:00
9:35 PM,45.1,36.3,71,29.98,10.0,South,3.5,-,N/A,,Overcast,190,2012-12-07 02:35:00
9:55 PM,45.3,36.1,70,29.98,10.0,South,5.8,-,N/A,,Overcast,190,2012-12-07 02:55:00
10:15 PM,45.0,36.0,71,29.97,10.0,South,4.6,-,N/A,,Overcast,170,2012-12-07 03:15:00
10:35 PM,44.2,35.8,72,29.98,10.0,SSW,4.6,-,N/A,,Mostly Cloudy,200,2012-12-07 03:35:00
10:55 PM,43.9,35.6,73,29.97,10.0,South,4.6,-,N/A,,Scattered Clouds,190,2012-12-07 03:55:00
11:15 PM,43.5,35.8,74,29.97,10.0,South,5.8,-,N/A,,Mostly Cloudy,190,2012-12-07 04:15:00
11:55 PM,43.2,35.6,75,29.97,10.0,South,3.5,-,N/A,,Clear,180,2012-12-07 04:55:00